Wind_Speed
6 7 7 7 7 7 7 8 8 8 8 8 9 9 10 10 9 9 9 9 9 9 9 9 9 9 9 10 9 10 10 10 10 10 10 10 11 11 10 11 10 10 10
8 8 9 9 8 9 9 9 9 10 10 9 10 11 11 11 10 10 9 9 9 9 10 10 10 10 10 11 11 11 11 12 12 12 12 12 12 12 12 12 11 11 12
9 10 10 10 10 10 10 11 11 11 10 10 11 11 12 12 12 11 11 10 11 11 11 11 11 11 11 12 12 12 13 13 13 13 13 13 13 13 13 13 13 13 13
10 10 10 10 11 11 12 11 12 12 11 11 12 12 12 13 13 13 12 12 12 12 12 12 12 12 13 13 13 13 13 14 14 15 15 15 15 15 15 15 15 14 14
11 11 11 11 11 11 12 12 12 13 13 13 14 14 13 14 14 14 14 14 13 13 13 13 13 14 14 14 14 14 14 14 14 15 15 16 16 15 16 16 16 16 16
12 12 12 11 12 12 12 13 13 13 14 14 14 15 15 15 15 15 15 15 15 14 14 14 15 15 15 15 15 15 15 15 16 16 16 16 16 16 16 16 17 17 17
12 12 12 12 13 13 13 13 13 14 14 14 15 16 17 17 16 16 16 16 16 16 15 16 16 16 16 16 16 16 17 17 17 18 17 17 17 17 17 17 18 19 18
13 13 13 13 13 13 13 13 14 15 15 15 16 17 17 18 17 17 17 17 17 17 17 17 17 17 17 17 17 17 18 18 18 19 18 18 18 19 19 19 19 19 19
14 14 15 14 14 15 15 15 15 16 17 16 17 17 18 18 18 18 18 18 19 19 19 18 19 18 19 18 18 18 18 19 20 20 20 19 19 20 20 20 20 20 20
15 15 15 15 15 16 16 16 17 18 18 17 18 18 19 19 19 19 19 19 19 19 20 20 20 20 20 20 20 20 19 20 21 21 21 19 20 21 21 22 21 22 21
16 16 16 16 16 16 16 17 17 18 18 18 19 19 20 20 21 20 20 20 20 21 21 21 21 21 21 21 21 20 20 21 22 22 21 21 21 22 22 23 23 23 23
17 17 17 17 17 16 17 17 18 18 18 19 20 20 21 21 21 21 21 21 22 22 22 22 22 22 23 22 22 22 22 22 22 22 22 22 22 23 24 23 23 23 24
18 17 18 18 17 17 18 18 19 20 20 20 20 20 21 21 21 22 22 23 22 23 24 24 24 24 24 24 24 24 24 24 23 24 24 24 25 25 25 25 24 24 24
18 19 19 18 18 18 17 18 19 20 20 20 20 20 21 21 21 23 23 24 25 24 24 25 25 25 25 25 25 24 24 24 25 25 25 25 26 26 26 26 26 26 26
19 19 20 19 19 19 19 19 19 20 19 20 20 21 21 21 22 23 24 25 25 25 26 26 26 26 26 25 25 25 25 25 26 26 25 25 26 26 27 27 27 27 26
21 21 21 19 19 19 20 20 21 21 21 21 22 22 22 23 23 24 24 25 25 26 26 26 25 26 25 25 26 26 26 26 27 26 25 25 25 26 26 27 27 27 28
21 21 21 20 20 20 20 21 22 22 22 22 22 22 23 23 24 24 25 25 25 25 25 26 26 25 25 25 25 25 25 25 26 26 25 25 26 26 27 27 27 28 28
20 20 20 21 20 20 21 22 22 22 23 22 22 23 23 24 25 25 25 26 26 26 26 26 26 26 26 25 24 24 24 24 25 25 26 26 26 26 27 27 27 28 28
19 19 19 20 21 21 21 22 23 22 22 22 23 23 24 25 26 26 26 26 26 26 26 27 26 26 26 25 24 24 24 24 24 25 26 26 26 26 26 27 27 28 29
19 19 19 20 21 22 22 22 22 21 22 23 23 24 25 25 26 26 26 26 26 26 26 26 25 25 25 25 25 24 24 24 24 25 25 26 26 26 26 27 27 27 29
20 20 20 21 22 22 22 21 21 22 23 23 24 25 26 26 26 26 26 26 26 26 26 26 25 25 25 25 24 23 24 24 24 24 24 25 25 26 26 27 27 28 28
21 21 21 21 21 21 22 22 23 23 23 24 25 26 26 26 27 27 26 26 26 26 26 25 26 26 26 25 24 23 24 24 25 25 25 25 25 26 26 27 27 28 28
21 20 20 20 20 21 21 23 24 24 24 24 25 26 26 26 26 27 28 27 27 27 26 25 25 25 25 25 24 24 24 24 23 24 24 25 25 25 26 26 27 27 28
21 20 20 20 20 21 21 23 24 25 25 25 26 26 26 26 27 27 27 27 27 27 27 26 25 25 26 25 25 25 25 24 23 22 23 24 25 25 25 26 26 26 27
21 21 21 21 21 21 22 23 24 25 25 26 25 25 25 26 26 25 26 27 27 27 27 26 26 25 25 25 25 25 25 24 24 23 23 23 24 24 25 25 26 25 26
21 21 21 21 22 22 23 24 25 25 25 26 26 25 26 26 26 25 25 25 26 26 25 25 25 25 24 24 25 25 24 24 25 25 24 23 23 24 24 24 25 25 25
Wind_Direction
285 287 292 292 291 288 292 291 288 285 284 281 280 282 282 282 282 285 288 288 289 288 289 287 284 281 280 280 279 276 273 270 267 266 264 263 262 263 263 261 260 260 259
289 291 295 295 293 293 291 289 289 287 282 282 282 283 284 282 282 284 284 288 289 289 290 288 285 283 282 280 278 275 274 272 270 268 264 262 262 261 261 261 259 258 258
290 291 294 297 295 294 290 287 290 289 286 287 289 288 286 286 286 286 286 288 287 287 288 288 285 282 281 279 277 275 273 272 270 268 267 263 262 261 261 260 259 257 257
290 291 293 294 293 292 289 285 286 287 285 286 290 288 287 288 288 286 286 286 287 287 287 288 285 281 280 280 278 275 274 273 272 270 269 267 265 262 260 259 258 258 258
290 290 292 292 290 289 286 284 284 286 286 286 288 288 288 287 287 287 287 287 288 287 288 288 286 283 282 280 279 276 274 274 274 272 270 267 265 263 261 259 258 257 258
293 293 291 290 288 288 285 285 285 284 286 287 287 286 284 285 285 287 287 288 287 287 288 288 287 285 282 281 280 278 276 275 274 273 272 269 267 266 264 261 259 258 258
294 295 293 291 290 289 286 284 285 286 287 287 286 287 285 285 286 285 286 287 288 288 288 289 289 287 284 283 281 279 278 278 277 275 273 270 268 266 265 267 265 261 258
292 293 294 293 292 289 290 290 289 289 289 290 288 289 289 287 287 285 286 288 289 288 288 288 289 285 284 283 283 281 278 277 278 277 275 269 268 266 266 266 265 263 260
292 290 292 295 292 291 291 291 291 290 289 289 289 291 291 289 287 287 287 289 290 290 289 288 289 286 285 284 283 282 279 277 277 277 275 271 269 268 266 265 263 261 259
294 290 290 293 293 292 292 292 291 291 289 290 289 292 291 289 288 287 288 290 291 290 290 290 289 286 286 285 283 281 279 278 277 277 277 275 271 269 267 265 263 259 258
296 295 294 294 293 290 290 292 293 292 291 291 293 293 292 291 288 288 288 290 291 291 291 290 288 286 286 285 283 282 280 279 279 278 277 275 272 269 268 266 264 261 259
294 294 296 296 295 292 291 291 293 293 293 294 294 295 294 293 291 290 289 291 292 292 292 291 289 288 288 286 283 282 280 280 279 278 279 276 274 271 269 267 264 263 262
293 294 295 295 295 295 294 294 293 294 294 295 295 295 296 295 296 295 293 293 294 293 293 292 290 289 287 286 283 282 280 281 280 280 280 278 275 272 269 267 265 264 263
292 293 294 294 294 296 295 294 293 294 295 297 299 299 299 298 298 297 297 295 295 294 295 293 291 290 287 286 285 283 281 281 281 281 279 277 275 272 268 266 266 265 263
288 289 290 291 292 293 292 293 295 296 297 299 300 302 301 299 299 299 299 299 298 297 297 294 292 291 289 286 285 284 283 282 283 281 279 278 275 271 269 266 266 265 262
287 288 288 288 289 290 291 293 295 296 296 298 301 302 302 304 302 299 299 301 300 298 298 295 294 292 291 289 287 286 285 283 283 282 281 278 275 272 270 268 265 264 263
289 288 286 286 288 291 292 293 296 296 297 300 303 302 302 302 302 303 303 302 300 299 299 298 295 294 293 291 289 288 286 285 286 284 282 279 275 272 270 268 265 263 264
286 285 283 284 287 289 292 294 295 297 298 299 301 301 301 301 301 302 303 301 300 299 298 297 295 294 294 293 292 289 288 285 285 284 282 280 276 274 271 268 265 263 264
285 284 284 283 285 287 290 294 295 296 298 299 300 301 302 302 301 301 301 301 301 300 299 299 297 296 296 296 294 291 289 287 285 284 282 280 278 274 271 269 268 265 264
288 286 287 286 286 289 291 294 295 295 298 299 302 303 304 303 301 300 301 301 301 301 300 301 301 299 297 296 293 290 289 287 286 285 283 281 278 275 273 270 270 267 265
289 288 287 285 286 289 290 292 295 296 296 299 302 303 302 302 301 300 300 300 301 302 302 302 301 300 298 296 293 291 290 288 288 287 285 282 280 278 275 272 270 269 268
289 288 287 288 287 289 290 291 296 297 298 300 301 302 301 301 302 302 301 301 301 301 301 301 300 299 298 297 296 292 291 289 288 288 288 285 282 280 278 275 271 268 267
290 289 289 290 290 291 291 293 296 297 300 301 302 303 303 302 301 300 298 299 300 300 300 299 298 298 298 298 297 295 292 291 289 288 289 286 283 281 279 277 273 270 269
289 287 287 290 293 295 296 295 297 299 300 301 303 303 304 303 302 298 298 299 301 300 300 300 300 299 298 297 297 297 295 292 290 289 290 288 286 284 281 279 275 273 271
287 288 287 289 292 294 297 297 299 301 302 302 304 303 303 303 302 299 299 301 301 300 301 302 302 301 299 298 297 297 296 294 292 292 294 291 289 286 283 281 278 276 275
285 286 286 289 291 293 296 299 300 301 302 303 304 305 305 303 301 300 301 302 301 301 301 302 302 301 299 299 298 297 296 295 294 293 293 292 291 290 286 282 280 279 278
Height
5886 5886 5886 5886 5885 5884 5884 5883 5882 5882 5882 5881 5881 5881 5880 5879 5878 5878 5877 5877 5876 5875 5874 5874 5873 5873 5872 5872 5872 5871 5871 5871 5871 5871 5871 5871 5871 5872 5872 5872 5873 5873 5874
5886 5885 5885 5884 5884 5883 5883 5882 5881 5880 5880 5880 5879 5879 5878 5877 5877 5876 5875 5875 5874 5873 5872 5872 5871 5871 5870 5870 5870 5869 5869 5869 5869 5869 5869 5869 5869 5870 5870 5870 5871 5871 5872
5885 5884 5884 5883 5882 5882 5881 5880 5880 5879 5878 5878 5877 5877 5876 5876 5875 5874 5873 5873 5872 5871 5870 5870 5869 5868 5868 5868 5867 5867 5867 5867 5867 5866 5867 5867 5867 5867 5868 5868 5868 5869 5869
5883 5883 5882 5882 5881 5880 5880 5879 5878 5877 5876 5876 5875 5875 5874 5874 5873 5872 5871 5870 5870 5869 5868 5867 5867 5866 5865 5865 5865 5864 5864 5864 5864 5864 5864 5864 5864 5865 5865 5865 5866 5866 5867
5882 5881 5881 5880 5879 5879 5878 5877 5876 5875 5874 5874 5873 5873 5872 5871 5870 5870 5869 5868 5867 5866 5865 5865 5864 5863 5862 5862 5862 5861 5861 5861 5861 5861 5861 5861 5862 5862 5862 5862 5862 5863 5864
5880 5879 5879 5878 5877 5876 5875 5874 5873 5872 5872 5871 5871 5870 5869 5868 5867 5867 5866 5865 5864 5863 5862 5862 5861 5860 5859 5859 5858 5858 5858 5857 5858 5858 5858 5858 5858 5859 5858 5858 5859 5860 5860
5878 5878 5876 5876 5875 5874 5872 5872 5871 5870 5869 5869 5868 5867 5866 5865 5864 5864 5863 5862 5861 5860 5859 5858 5858 5857 5856 5855 5855 5854 5854 5854 5854 5854 5854 5854 5855 5855 5855 5855 5855 5856 5857
5876 5876 5874 5873 5873 5871 5870 5869 5869 5868 5867 5866 5865 5865 5864 5863 5861 5860 5860 5859 5858 5857 5856 5855 5854 5853 5853 5852 5851 5851 5850 5850 5850 5850 5850 5851 5851 5851 5851 5851 5851 5852 5853
5874 5873 5872 5871 5870 5869 5868 5867 5866 5865 5865 5864 5862 5862 5860 5859 5858 5857 5856 5855 5854 5853 5852 5851 5850 5850 5849 5848 5847 5847 5846 5846 5846 5845 5845 5846 5847 5847 5847 5847 5847 5848 5849
5871 5871 5869 5869 5868 5866 5865 5864 5863 5863 5862 5861 5859 5858 5857 5856 5855 5854 5853 5852 5850 5849 5848 5847 5846 5846 5845 5844 5843 5842 5842 5841 5841 5841 5841 5842 5842 5842 5842 5843 5843 5844 5844
5868 5867 5866 5866 5865 5864 5862 5861 5860 5859 5858 5857 5856 5854 5853 5852 5851 5850 5849 5848 5846 5845 5844 5843 5842 5841 5840 5839 5839 5838 5837 5837 5836 5836 5836 5837 5837 5837 5837 5837 5838 5839 5839
5866 5865 5863 5862 5862 5861 5860 5859 5858 5857 5855 5854 5852 5850 5849 5848 5847 5845 5844 5843 5842 5841 5839 5838 5837 5836 5835 5835 5834 5833 5832 5832 5831 5831 5831 5831 5831 5831 5831 5831 5832 5833 5834
5862 5862 5861 5860 5859 5858 5857 5856 5854 5853 5852 5850 5848 5847 5845 5844 5842 5841 5840 5839 5837 5836 5835 5833 5832 5831 5830 5829 5828 5828 5827 5826 5826 5825 5826 5825 5825 5825 5825 5826 5827 5827 5828
5859 5858 5857 5856 5856 5855 5854 5852 5851 5849 5848 5846 5844 5843 5841 5839 5838 5837 5836 5834 5832 5831 5829 5828 5826 5825 5824 5823 5823 5822 5821 5821 5820 5819 5820 5819 5819 5819 5819 5820 5821 5821 5822
5855 5854 5851 5852 5852 5851 5850 5849 5847 5846 5844 5843 5841 5839 5838 5836 5835 5833 5831 5829 5828 5826 5824 5822 5821 5820 5819 5818 5817 5816 5815 5815 5814 5814 5814 5813 5813 5813 5813 5813 5814 5815 5816
5851 5850 5847 5846 5847 5848 5846 5845 5844 5842 5841 5840 5838 5836 5834 5832 5830 5828 5826 5824 5822 5821 5819 5817 5816 5815 5813 5812 5811 5810 5809 5808 5808 5807 5807 5806 5806 5806 5806 5806 5807 5808 5809
5846 5846 5845 5843 5843 5844 5843 5841 5840 5839 5837 5836 5834 5832 5830 5828 5826 5824 5822 5819 5817 5815 5814 5812 5811 5809 5807 5806 5804 5803 5802 5802 5801 5800 5800 5799 5799 5799 5799 5800 5800 5801 5802
5843 5842 5841 5840 5839 5839 5839 5837 5836 5835 5833 5832 5830 5828 5826 5824 5822 5819 5817 5814 5812 5810 5808 5807 5805 5803 5801 5800 5798 5797 5796 5795 5794 5794 5793 5793 5792 5792 5792 5792 5793 5793 5794
5838 5837 5837 5836 5835 5834 5834 5833 5832 5831 5829 5828 5826 5824 5821 5819 5817 5815 5812 5809 5807 5805 5803 5801 5799 5798 5796 5794 5792 5791 5790 5789 5788 5787 5786 5786 5785 5785 5785 5785 5785 5786 5787
5834 5834 5833 5833 5831 5830 5829 5828 5827 5827 5825 5823 5821 5819 5817 5815 5812 5809 5807 5805 5802 5800 5798 5796 5794 5792 5790 5788 5786 5785 5784 5783 5782 5781 5779 5779 5778 5778 5777 5778 5778 5778 5779
5831 5830 5829 5828 5827 5826 5825 5824 5823 5822 5821 5819 5817 5814 5812 5810 5807 5804 5802 5800 5798 5795 5793 5791 5789 5786 5784 5783 5781 5779 5778 5777 5776 5774 5773 5772 5771 5771 5770 5771 5771 5771 5771
5827 5826 5825 5824 5823 5822 5821 5820 5818 5817 5816 5814 5812 5810 5807 5804 5802 5799 5797 5795 5792 5790 5788 5785 5783 5781 5779 5777 5775 5774 5772 5772 5770 5768 5766 5765 5764 5763 5763 5763 5763 5763 5763
5823 5822 5821 5820 5819 5818 5817 5816 5814 5813 5811 5809 5807 5805 5802 5799 5796 5794 5792 5789 5787 5785 5782 5780 5778 5776 5774 5772 5769 5768 5766 5765 5764 5762 5760 5758 5757 5757 5756 5755 5755 5755 5755
5819 5817 5816 5816 5815 5814 5813 5811 5810 5808 5806 5804 5801 5799 5796 5793 5789 5787 5786 5783 5781 5779 5777 5775 5772 5770 5768 5766 5764 5762 5760 5758 5757 5756 5754 5752 5751 5750 5749 5748 5748 5748 5748
5814 5813 5812 5811 5811 5810 5808 5806 5805 5803 5801 5799 5796 5794 5790 5787 5784 5781 5780 5777 5775 5773 5771 5769 5767 5765 5763 5761 5759 5757 5754 5752 5750 5749 5748 5747 5745 5744 5743 5742 5741 5740 5740
5810 5809 5807 5806 5806 5805 5803 5802 5800 5798 5796 5793 5791 5789 5785 5782 5779 5776 5774 5772 5770 5768 5765 5763 5761 5759 5757 5755 5753 5751 5749 5747 5745 5743 5741 5740 5739 5737 5736 5735 5734 5734 5733